Location: �terpigny
(49.8910°N, 2.9249°E)
Time: 13:12:56
(UTC+00:00)

UWE-3 - Pass Details

Date: 01 July 2022
Orbit: 583 x 677 km, 97.7° (Epoch: 14 August)

Event Time Altitude Azimuth Distance (km) Brightness Sun altitude
Rises 02:11:36 0° 27° (NNE) 2,886 ? -10.7°
Reaches altitude 10° 02:14:21 10° 45° (NE) 1,994 ? -10.5°
Maximum altitude 02:17:26 19° 91° (E) 1,512 ? -10.2°
Drops below altitude 10° 02:20:33 10° 136° (SE) 2,024 ? -9.9°
Sets 02:23:21 0° 155° (SSE) 2,946 ? -9.7°
